![]() |
EMODnet Physics ERDDAP
Easier access to scientific data |
log in|
Brought to you by EMODnet Physics |
| Dataset Title: | NDBC - Collection of dew point temperature (DEWT) TimeSeries - IN SITU MultiPointTimeSeriesObservation
|
| Institution: | NDBC (Dataset ID: TS_DEWT_NDBC) |
| Information: | Summary
| License
| FGDC
| ISO 19115
| Metadata
| Background
| Subset
| Data Access Form
| Make a graph
|
| Name | Last modified | Size | Description | |
|---|---|---|---|---|
| Parent Directory | - | - | ||
| 46030_TS_DEWT_011985.nc | 26-Oct-2024 23:34 | 429821 | ||
| 46030_TS_DEWT_011986.nc | 26-Oct-2024 23:34 | 429152 | ||
| 46030_TS_DEWT_011989.nc | 26-Oct-2024 23:34 | 429446 | ||
| 46030_TS_DEWT_011990.nc | 26-Oct-2024 23:34 | 428974 | ||
| 46030_TS_DEWT_011993.nc | 26-Oct-2024 23:34 | 429378 | ||
| 46030_TS_DEWT_011994.nc | 26-Oct-2024 23:34 | 429494 | ||
| 46030_TS_DEWT_011995.nc | 26-Oct-2024 23:34 | 429473 | ||
| 46030_TS_DEWT_011996.nc | 26-Oct-2024 23:34 | 429210 | ||
| 46030_TS_DEWT_011997.nc | 26-Oct-2024 23:34 | 425716 | ||
| 46030_TS_DEWT_011999.nc | 26-Oct-2024 23:34 | 429303 | ||
| 46030_TS_DEWT_012000.nc | 26-Oct-2024 23:34 | 429482 | ||
| 46030_TS_DEWT_012001.nc | 26-Oct-2024 23:34 | 429492 | ||
| 46030_TS_DEWT_012002.nc | 16-Sep-2024 16:51 | 429840 | ||
| 46030_TS_DEWT_021985.nc | 26-Oct-2024 23:34 | 429598 | ||
| 46030_TS_DEWT_021986.nc | 26-Oct-2024 23:34 | 429660 | ||
| 46030_TS_DEWT_021989.nc | 26-Oct-2024 23:34 | 429816 | ||
| 46030_TS_DEWT_021990.nc | 26-Oct-2024 23:35 | 418799 | ||
| 46030_TS_DEWT_021991.nc | 26-Oct-2024 23:35 | 429830 | ||
| 46030_TS_DEWT_021993.nc | 26-Oct-2024 23:35 | 429819 | ||
| 46030_TS_DEWT_021994.nc | 26-Oct-2024 23:35 | 429607 | ||
| 46030_TS_DEWT_021995.nc | 26-Oct-2024 23:35 | 429363 | ||
| 46030_TS_DEWT_021996.nc | 26-Oct-2024 23:35 | 429824 | ||
| 46030_TS_DEWT_021997.nc | 26-Oct-2024 23:35 | 424909 | ||
| 46030_TS_DEWT_021999.nc | 26-Oct-2024 23:35 | 423888 | ||
| 46030_TS_DEWT_022000.nc | 26-Oct-2024 23:35 | 422516 | ||
| 46030_TS_DEWT_022001.nc | 26-Oct-2024 23:35 | 429815 | ||
| 46030_TS_DEWT_022002.nc | 16-Sep-2024 16:51 | 429009 | ||
| 46030_TS_DEWT_031985.nc | 26-Oct-2024 23:35 | 429788 | ||
| 46030_TS_DEWT_031986.nc | 26-Oct-2024 23:35 | 429817 | ||
| 46030_TS_DEWT_031988.nc | 26-Oct-2024 23:35 | 429820 | ||
| 46030_TS_DEWT_031989.nc | 26-Oct-2024 23:35 | 429818 | ||
| 46030_TS_DEWT_031990.nc | 26-Oct-2024 23:35 | 429703 | ||
| 46030_TS_DEWT_031991.nc | 26-Oct-2024 23:35 | 429753 | ||
| 46030_TS_DEWT_031993.nc | 26-Oct-2024 23:35 | 429794 | ||
| 46030_TS_DEWT_031994.nc | 26-Oct-2024 23:35 | 429837 | ||
| 46030_TS_DEWT_031995.nc | 26-Oct-2024 23:35 | 429837 | ||
| 46030_TS_DEWT_031996.nc | 26-Oct-2024 23:36 | 427649 | ||
| 46030_TS_DEWT_031997.nc | 26-Oct-2024 23:36 | 426056 | ||
| 46030_TS_DEWT_031999.nc | 26-Oct-2024 23:36 | 429198 | ||
| 46030_TS_DEWT_032000.nc | 26-Oct-2024 23:36 | 426609 | ||
| 46030_TS_DEWT_032001.nc | 26-Oct-2024 23:36 | 429482 | ||
| 46030_TS_DEWT_032002.nc | 16-Sep-2024 16:51 | 429394 | ||
| 46030_TS_DEWT_041985.nc | 26-Oct-2024 23:36 | 429474 | ||
| 46030_TS_DEWT_041986.nc | 26-Oct-2024 23:36 | 428819 | ||
| 46030_TS_DEWT_041988.nc | 26-Oct-2024 23:36 | 429456 | ||
| 46030_TS_DEWT_041989.nc | 26-Oct-2024 23:36 | 429343 | ||
| 46030_TS_DEWT_041990.nc | 26-Oct-2024 23:36 | 429494 | ||
| 46030_TS_DEWT_041991.nc | 26-Oct-2024 23:36 | 428937 | ||
| 46030_TS_DEWT_041993.nc | 26-Oct-2024 23:36 | 429128 | ||
| 46030_TS_DEWT_041994.nc | 26-Oct-2024 23:36 | 429731 | ||
| 46030_TS_DEWT_041995.nc | 26-Oct-2024 23:36 | 429818 | ||
| 46030_TS_DEWT_041996.nc | 26-Oct-2024 23:36 | 429819 | ||
| 46030_TS_DEWT_041997.nc | 26-Oct-2024 23:36 | 429706 | ||
| 46030_TS_DEWT_041999.nc | 26-Oct-2024 23:36 | 429837 | ||
| 46030_TS_DEWT_042000.nc | 26-Oct-2024 23:36 | 429771 | ||
| 46030_TS_DEWT_042001.nc | 26-Oct-2024 23:37 | 429699 | ||
| 46030_TS_DEWT_051985.nc | 26-Oct-2024 23:37 | 429840 | ||
| 46030_TS_DEWT_051986.nc | 26-Oct-2024 23:37 | 429816 | ||
| 46030_TS_DEWT_051988.nc | 26-Oct-2024 23:37 | 429165 | ||
| 46030_TS_DEWT_051989.nc | 26-Oct-2024 23:37 | 429441 | ||
| 46030_TS_DEWT_051990.nc | 26-Oct-2024 23:37 | 429117 | ||
| 46030_TS_DEWT_051991.nc | 26-Oct-2024 23:37 | 429010 | ||
| 46030_TS_DEWT_051993.nc | 26-Oct-2024 23:37 | 429473 | ||
| 46030_TS_DEWT_051995.nc | 26-Oct-2024 23:37 | 429363 | ||
| 46030_TS_DEWT_051996.nc | 26-Oct-2024 23:37 | 429496 | ||
| 46030_TS_DEWT_051997.nc | 26-Oct-2024 23:37 | 429324 | ||
| 46030_TS_DEWT_051999.nc | 26-Oct-2024 23:37 | 429222 | ||
| 46030_TS_DEWT_052000.nc | 26-Oct-2024 23:37 | 429388 | ||
| 46030_TS_DEWT_052001.nc | 26-Oct-2024 23:37 | 420116 | ||
| 46030_TS_DEWT_061985.nc | 26-Oct-2024 23:37 | 429500 | ||
| 46030_TS_DEWT_061988.nc | 26-Oct-2024 23:37 | 428979 | ||
| 46030_TS_DEWT_061989.nc | 26-Oct-2024 23:37 | 429822 | ||
| 46030_TS_DEWT_061990.nc | 26-Oct-2024 23:37 | 429664 | ||
| 46030_TS_DEWT_061991.nc | 26-Oct-2024 23:38 | 429840 | ||
| 46030_TS_DEWT_061993.nc | 26-Oct-2024 23:38 | 429796 | ||
| 46030_TS_DEWT_061995.nc | 26-Oct-2024 23:38 | 429818 | ||
| 46030_TS_DEWT_061996.nc | 26-Oct-2024 23:38 | 429573 | ||
| 46030_TS_DEWT_061997.nc | 26-Oct-2024 23:38 | 429776 | ||
| 46030_TS_DEWT_061999.nc | 26-Oct-2024 23:38 | 429624 | ||
| 46030_TS_DEWT_062000.nc | 26-Oct-2024 23:38 | 429820 | ||
| 46030_TS_DEWT_062001.nc | 26-Oct-2024 23:38 | 423848 | ||
| 46030_TS_DEWT_071985.nc | 26-Oct-2024 23:38 | 450584 | ||
| 46030_TS_DEWT_071988.nc | 26-Oct-2024 23:38 | 450608 | ||
| 46030_TS_DEWT_071989.nc | 26-Oct-2024 23:38 | 450250 | ||
| 46030_TS_DEWT_071990.nc | 26-Oct-2024 23:38 | 450615 | ||
| 46030_TS_DEWT_071991.nc | 26-Oct-2024 23:38 | 450591 | ||
| 46030_TS_DEWT_071993.nc | 26-Oct-2024 23:38 | 450841 | ||
| 46030_TS_DEWT_071995.nc | 26-Oct-2024 23:38 | 450731 | ||
| 46030_TS_DEWT_071996.nc | 26-Oct-2024 23:38 | 432647 | ||
| 46030_TS_DEWT_071997.nc | 26-Oct-2024 23:38 | 450265 | ||
| 46030_TS_DEWT_071998.nc | 26-Oct-2024 23:38 | 451137 | ||
| 46030_TS_DEWT_072000.nc | 26-Oct-2024 23:38 | 450560 | ||
| 46030_TS_DEWT_072001.nc | 26-Oct-2024 23:38 | 436329 | ||
| 46030_TS_DEWT_081985.nc | 26-Oct-2024 23:39 | 1182775 | ||
| 46030_TS_DEWT_081986.nc | 26-Oct-2024 23:39 | 447783 | ||
| 46030_TS_DEWT_081988.nc | 26-Oct-2024 23:39 | 447018 | ||
| 46030_TS_DEWT_081989.nc | 26-Oct-2024 23:39 | 447980 | ||
| 46030_TS_DEWT_081990.nc | 26-Oct-2024 23:39 | 448255 | ||
| 46030_TS_DEWT_081991.nc | 26-Oct-2024 23:39 | 448841 | ||
| 46030_TS_DEWT_081993.nc | 26-Oct-2024 23:39 | 448421 | ||
| 46030_TS_DEWT_081994.nc | 26-Oct-2024 23:39 | 447372 | ||
| 46030_TS_DEWT_081995.nc | 26-Oct-2024 23:39 | 447750 | ||
| 46030_TS_DEWT_081996.nc | 26-Oct-2024 23:39 | 449268 | ||
| 46030_TS_DEWT_081997.nc | 26-Oct-2024 23:39 | 431190 | ||
| 46030_TS_DEWT_081998.nc | 26-Oct-2024 23:39 | 446846 | ||
| 46030_TS_DEWT_082000.nc | 26-Oct-2024 23:39 | 447876 | ||
| 46030_TS_DEWT_082001.nc | 26-Oct-2024 23:39 | 448939 | ||
| 46030_TS_DEWT_091985.nc | 26-Oct-2024 23:39 | 442492 | ||
| 46030_TS_DEWT_091986.nc | 26-Oct-2024 23:39 | 1008567 | ||
| 46030_TS_DEWT_091988.nc | 26-Oct-2024 23:39 | 4498826 | ||
| 46030_TS_DEWT_091989.nc | 26-Oct-2024 23:39 | 450394 | ||
| 46030_TS_DEWT_091990.nc | 26-Oct-2024 23:39 | 444189 | ||
| 46030_TS_DEWT_091991.nc | 26-Oct-2024 23:39 | 450856 | ||
| 46030_TS_DEWT_091993.nc | 26-Oct-2024 23:40 | 450303 | ||
| 46030_TS_DEWT_091994.nc | 26-Oct-2024 23:40 | 450842 | ||
| 46030_TS_DEWT_091995.nc | 26-Oct-2024 23:40 | 451817 | ||
| 46030_TS_DEWT_091996.nc | 26-Oct-2024 23:40 | 450941 | ||
| 46030_TS_DEWT_091997.nc | 26-Oct-2024 23:40 | 451844 | ||
| 46030_TS_DEWT_091998.nc | 26-Oct-2024 23:40 | 451085 | ||
| 46030_TS_DEWT_091999.nc | 26-Oct-2024 23:40 | 451810 | ||
| 46030_TS_DEWT_092000.nc | 26-Oct-2024 23:40 | 450517 | ||
| 46030_TS_DEWT_092001.nc | 16-Sep-2024 16:51 | 451567 | ||
| 46030_TS_DEWT_101984.nc | 26-Oct-2024 23:40 | 450241 | ||
| 46030_TS_DEWT_101985.nc | 26-Oct-2024 23:40 | 444914 | ||
| 46030_TS_DEWT_101986.nc | 26-Oct-2024 23:40 | 1263798 | ||
| 46030_TS_DEWT_101988.nc | 26-Oct-2024 23:40 | 4070653 | ||
| 46030_TS_DEWT_101989.nc | 26-Oct-2024 23:40 | 449843 | ||
| 46030_TS_DEWT_101990.nc | 26-Oct-2024 23:40 | 448657 | ||
| 46030_TS_DEWT_101991.nc | 26-Oct-2024 23:40 | 449846 | ||
| 46030_TS_DEWT_101992.nc | 26-Oct-2024 23:40 | 450328 | ||
| 46030_TS_DEWT_101993.nc | 26-Oct-2024 23:40 | 449544 | ||
| 46030_TS_DEWT_101994.nc | 26-Oct-2024 23:40 | 449012 | ||
| 46030_TS_DEWT_101995.nc | 26-Oct-2024 23:40 | 449637 | ||
| 46030_TS_DEWT_101996.nc | 26-Oct-2024 23:40 | 449213 | ||
| 46030_TS_DEWT_101997.nc | 26-Oct-2024 23:40 | 449556 | ||
| 46030_TS_DEWT_101998.nc | 26-Oct-2024 23:40 | 449747 | ||
| 46030_TS_DEWT_101999.nc | 26-Oct-2024 23:40 | 449257 | ||
| 46030_TS_DEWT_102000.nc | 26-Oct-2024 23:40 | 449121 | ||
| 46030_TS_DEWT_102001.nc | 16-Sep-2024 16:51 | 449722 | ||
| 46030_TS_DEWT_111984.nc | 26-Oct-2024 23:41 | 433035 | ||
| 46030_TS_DEWT_111985.nc | 26-Oct-2024 23:41 | 426233 | ||
| 46030_TS_DEWT_111986.nc | 26-Oct-2024 23:41 | 648840 | ||
| 46030_TS_DEWT_111988.nc | 26-Oct-2024 23:41 | 1111923 | ||
| 46030_TS_DEWT_111989.nc | 26-Oct-2024 23:41 | 450808 | ||
| 46030_TS_DEWT_111990.nc | 26-Oct-2024 23:41 | 450636 | ||
| 46030_TS_DEWT_111992.nc | 26-Oct-2024 23:41 | 450681 | ||
| 46030_TS_DEWT_111993.nc | 26-Oct-2024 23:41 | 451023 | ||
| 46030_TS_DEWT_111994.nc | 26-Oct-2024 23:41 | 450525 | ||
| 46030_TS_DEWT_111995.nc | 26-Oct-2024 23:41 | 450670 | ||
| 46030_TS_DEWT_111996.nc | 26-Oct-2024 23:41 | 451102 | ||
| 46030_TS_DEWT_111998.nc | 26-Oct-2024 23:41 | 450838 | ||
| 46030_TS_DEWT_111999.nc | 26-Oct-2024 23:41 | 450680 | ||
| 46030_TS_DEWT_112000.nc | 26-Oct-2024 23:41 | 451055 | ||
| 46030_TS_DEWT_112001.nc | 16-Sep-2024 16:51 | 449706 | ||
| 46030_TS_DEWT_121984.nc | 26-Oct-2024 23:41 | 450283 | ||
| 46030_TS_DEWT_121985.nc | 26-Oct-2024 23:41 | 449700 | ||
| 46030_TS_DEWT_121988.nc | 26-Oct-2024 23:41 | 449580 | ||
| 46030_TS_DEWT_121989.nc | 26-Oct-2024 23:41 | 1015426 | ||
| 46030_TS_DEWT_121990.nc | 26-Oct-2024 23:41 | 1263042 | ||
| 46030_TS_DEWT_121991.nc | 26-Oct-2024 23:42 | 1263608 | ||
| 46030_TS_DEWT_121992.nc | 26-Oct-2024 23:42 | 448426 | ||
| 46030_TS_DEWT_121993.nc | 26-Oct-2024 23:42 | 450215 | ||
| 46030_TS_DEWT_121994.nc | 26-Oct-2024 23:42 | 449250 | ||
| 46030_TS_DEWT_121995.nc | 26-Oct-2024 23:42 | 448928 | ||
| 46030_TS_DEWT_121996.nc | 26-Oct-2024 23:42 | 449131 | ||
| 46030_TS_DEWT_121998.nc | 26-Oct-2024 23:42 | 449778 | ||
| 46030_TS_DEWT_121999.nc | 26-Oct-2024 23:42 | 449688 | ||
| 46030_TS_DEWT_122000.nc | 26-Oct-2024 23:42 | 449605 | ||
| 46030_TS_DEWT_122001.nc | 16-Sep-2024 16:51 | 449928 | ||